Airport Information

KGEG - Spokane Intl Airport

KGEG 202253Z 25019G26KT 10SM FEW040 FEW200 11/02 A2970 RMK AO2 PK WND 24030/2206 SLP059 SHRA DSNT E T01060017


  • General Information

  • Coordinates: N 47°37'11"/ W 117°32'1"
  • Location: 5 miles SW of Spokane, Washington on 6140 acres of land.
  • Surveyed Elevation: 2376 MSL

Operations

Flow Name Active Runways Conditions
Runway 3 Landing: 3
Departing: 3
Wind Direction: 119-300°
Wind Speed: >10
Calm Wind Landing: 21
Departing: 21
Wind Direction: 000-360°
Wind Speed: <10 or CALM

Green background denotes normal operations.


Common Frequencies

Callsign Frequency Position Name
GEG_DEL 127.55 Spokane Clearance Delivery
GEG_GND 121.9 Spokane Ground
GEG_TWR 118.3 Spokane Tower
GEG_APP/GEG_DEP 123.75 Spokane Approach/Departure

More at the Document Center


Charts

Under Construction